User: anonymous   Login
Location: Prairie Dale
(45.6972°N, 104.5033°W)
Time: 20:31:21
(UTC+00:00)
Language:

EO-79 - Orbit

View from above orbital plane
View from above orbital plane
View from above satellite
View from above satellite

Ground track
Ground track

The orbit data is extracted from the following two-line orbital elements,

1 40025U 14033R   22177.52139332  .00001811  00000-0  19103-3 0  9997
2 40025  97.9607 114.9911 0013165  33.7931 326.4123 14.90537061435110
Epoch (UTC): 26 June 2022 12:30:48
Eccentricity: 0.0013165
inclination: 97.9607°
perigee height: 587 km
apogee height: 605 km
right ascension of ascending node: 114.9911°
argument of perigee: 33.7931°
revolutions per day: 14.90537061
mean anomaly at epoch: 326.4123°
orbit number at epoch: 43511

The dashed part of the orbit path shows where the satellite is in the earth's shadow,  

DLR